Station Historical Data
Daily Summary for September 10, 2017 Units:  English    Metric   Both
« Previous Day
Next Day »
Daily Weekly Monthly Yearly Custom
  High: Low: Average:
Temperature: 87.4 °F 65.9 °F 75.2 °F
Dew Point: 57.7 °F 46.2 °F 52.4 °F
Humidity: 54 % 33 % 46 %
Wind Speed: 11.0 mph 0.0 mph 2 mph
Wind Gust: 15.0 mph - -
Wind:- - SSE
Pressure: 30.01 in 29.89 in -
Precipitation: 0.00 in    
Historical Graphs
 
 
Tabular Data for September 10, 2017
Time Temperature Dew Point Pressure Wind Wind Speed Wind Gust Humidity Rainfall Rate (Hourly) solar
00:03 68.3 °F 50.0 °F 29.98 in Calm   7.0 mph 52 % 0.00 in 0.00 W/m2
00:08 68.3 °F 50.0 °F 29.98 in East 4.0 mph 8.0 mph 52 % 0.00 in 0.00 W/m2
00:13 68.2 °F 49.9 °F 29.98 in East 5.0 mph 8.0 mph 52 % 0.00 in 0.00 W/m2
00:18 68.1 °F 49.8 °F 29.98 in East 2.0 mph 7.0 mph 52 % 0.00 in 0.00 W/m2
00:23 68.1 °F 49.8 °F 29.98 in East 1.0 mph 7.0 mph 52 % 0.00 in 0.00 W/m2
00:28 68.1 °F 49.8 °F 29.98 in East 2.0 mph 8.0 mph 52 % 0.00 in 0.00 W/m2
00:33 68.1 °F 49.8 °F 29.98 in ESE 4.0 mph 8.0 mph 52 % 0.00 in 0.00 W/m2
00:38 68.1 °F 49.3 °F 29.98 in Calm   8.0 mph 51 % 0.00 in 0.00 W/m2
00:43 68.1 °F 49.3 °F 29.98 in ESE 2.0 mph 9.0 mph 51 % 0.00 in 0.00 W/m2
00:48 68.1 °F 49.3 °F 29.98 in ESE 5.0 mph 7.0 mph 51 % 0.00 in 0.00 W/m2
00:53 68.0 °F 49.2 °F 29.98 in ESE 4.0 mph 7.0 mph 51 % 0.00 in 0.00 W/m2
00:58 68.1 °F 49.3 °F 29.98 in ESE 5.0 mph 8.0 mph 51 % 0.00 in 0.00 W/m2
01:03 68.1 °F 49.3 °F 29.98 in ESE 4.0 mph 9.0 mph 51 % 0.00 in 0.00 W/m2
01:08 68.0 °F 49.2 °F 29.98 in ESE 5.0 mph 8.0 mph 51 % 0.00 in 0.00 W/m2
01:13 68.0 °F 48.7 °F 29.97 in ESE 6.0 mph 7.0 mph 50 % 0.00 in 0.00 W/m2
01:18 68.0 °F 48.7 °F 29.97 in ESE 4.0 mph 9.0 mph 50 % 0.00 in 0.00 W/m2
01:23 68.0 °F 48.7 °F 29.97 in ESE 6.0 mph 8.0 mph 50 % 0.00 in 0.00 W/m2
01:28 68.0 °F 48.7 °F 29.97 in ESE 4.0 mph 6.0 mph 50 % 0.00 in 0.00 W/m2
01:33 68.0 °F 48.7 °F 29.97 in ESE 6.0 mph 8.0 mph 50 % 0.00 in 0.00 W/m2
01:38 68.0 °F 48.7 °F 29.97 in East 4.0 mph 8.0 mph 50 % 0.00 in 0.00 W/m2
01:43 67.9 °F 48.6 °F 29.97 in East 9.0 mph 11.0 mph 50 % 0.00 in 0.00 W/m2
01:48 67.8 °F 48.5 °F 29.97 in East 2.0 mph 7.0 mph 50 % 0.00 in 0.00 W/m2
01:53 67.7 °F 48.4 °F 29.97 in East 2.0 mph 7.0 mph 50 % 0.00 in 0.00 W/m2
01:58 67.6 °F 48.3 °F 29.97 in East 5.0 mph 6.0 mph 50 % 0.00 in 0.00 W/m2
02:03 67.5 °F 48.2 °F 29.97 in East 4.0 mph 7.0 mph 50 % 0.00 in 0.00 W/m2
02:08 67.5 °F 48.2 °F 29.97 in East 5.0 mph 7.0 mph 50 % 0.00 in 0.00 W/m2
02:13 67.4 °F 48.1 °F 29.98 in East 2.0 mph 8.0 mph 50 % 0.00 in 0.00 W/m2
02:18 67.4 °F 48.1 °F 29.98 in East 4.0 mph 8.0 mph 50 % 0.00 in 0.00 W/m2
02:23 67.3 °F 48.0 °F 29.97 in East 5.0 mph 8.0 mph 50 % 0.00 in 0.00 W/m2
02:28 67.3 °F 47.5 °F 29.98 in East 1.0 mph 8.0 mph 49 % 0.00 in 0.00 W/m2
02:29 67.3 °F 47.5 °F 29.98 in East 1.0 mph 8.0 mph 49 % 0.00 in 0.00 W/m2
02:34 67.3 °F 47.5 °F 29.97 in East 2.0 mph 7.0 mph 49 % 0.00 in 0.00 W/m2
02:39 67.2 °F 47.4 °F 29.98 in East 7.0 mph 11.0 mph 49 % 0.00 in 0.00 W/m2
02:44 67.2 °F 47.4 °F 29.98 in East 5.0 mph 7.0 mph 49 % 0.00 in 0.00 W/m2
02:49 67.2 °F 47.4 °F 29.98 in ESE 5.0 mph 8.0 mph 49 % 0.00 in 0.00 W/m2
02:54 67.1 °F 47.3 °F 29.98 in ESE 4.0 mph 8.0 mph 49 % 0.00 in 0.00 W/m2
02:59 67.1 °F 47.3 °F 29.98 in ESE 4.0 mph 8.0 mph 49 % 0.00 in 0.00 W/m2
03:04 67.1 °F 47.3 °F 29.98 in ESE 2.0 mph 8.0 mph 49 % 0.00 in 0.00 W/m2
03:09 67.1 °F 47.3 °F 29.98 in ESE 4.0 mph 9.0 mph 49 % 0.00 in 0.00 W/m2
03:14 67.0 °F 47.2 °F 29.97 in ESE 2.0 mph 9.0 mph 49 % 0.00 in 0.00 W/m2
03:19 67.0 °F 47.2 °F 29.97 in ESE 5.0 mph 7.0 mph 49 % 0.00 in 0.00 W/m2
03:24 67.0 °F 47.2 °F 29.97 in East 4.0 mph 8.0 mph 49 % 0.00 in 0.00 W/m2
03:29 66.9 °F 47.1 °F 29.98 in Calm   7.0 mph 49 % 0.00 in 0.00 W/m2
03:34 66.9 °F 47.1 °F 29.97 in Calm   5.0 mph 49 % 0.00 in 0.00 W/m2
03:39 66.9 °F 46.6 °F 29.97 in East 6.0 mph 6.0 mph 48 % 0.00 in 0.00 W/m2
03:44 66.9 °F 46.6 °F 29.97 in East 5.0 mph 8.0 mph 48 % 0.00 in 0.00 W/m2
03:49 66.9 °F 46.6 °F 29.97 in East 1.0 mph 7.0 mph 48 % 0.00 in 0.00 W/m2
03:54 66.8 °F 46.5 °F 29.97 in East 5.0 mph 6.0 mph 48 % 0.00 in 0.00 W/m2
03:59 66.8 °F 46.5 °F 29.98 in East 7.0 mph 7.0 mph 48 % 0.00 in 0.00 W/m2
04:04 66.8 °F 46.5 °F 29.98 in East 2.0 mph 7.0 mph 48 % 0.00 in 0.00 W/m2
04:09 66.7 °F 46.4 °F 29.98 in East 5.0 mph 7.0 mph 48 % 0.00 in 0.00 W/m2
04:14 66.7 °F 47.0 °F 29.98 in East 4.0 mph 5.0 mph 49 % 0.00 in 0.00 W/m2
04:19 66.7 °F 46.4 °F 29.98 in Calm     48 % 0.00 in 0.00 W/m2
04:24 66.7 °F 47.0 °F 29.98 in Calm     49 % 0.00 in 0.00 W/m2
04:29 66.7 °F 47.5 °F 29.98 in Calm   1.0 mph 50 % 0.00 in 0.00 W/m2
04:34 66.7 °F 47.0 °F 29.98 in East 4.0 mph 5.0 mph 49 % 0.00 in 0.00 W/m2
04:39 66.7 °F 47.0 °F 29.97 in Calm   4.0 mph 49 % 0.00 in 0.00 W/m2
04:44 66.7 °F 47.5 °F 29.97 in Calm   5.0 mph 50 % 0.00 in 0.00 W/m2
04:49 66.7 °F 47.5 °F 29.97 in East 1.0 mph 1.0 mph 50 % 0.00 in 0.00 W/m2
04:54 66.6 °F 47.4 °F 29.98 in East 2.0 mph 6.0 mph 50 % 0.00 in 0.00 W/m2
04:59 66.6 °F 47.4 °F 29.98 in East 2.0 mph 5.0 mph 50 % 0.00 in 0.00 W/m2
05:04 66.5 °F 47.3 °F 29.97 in Calm     50 % 0.00 in 0.00 W/m2
05:09 66.5 °F 47.3 °F 29.98 in East 4.0 mph 5.0 mph 50 % 0.00 in 0.00 W/m2
05:14 66.4 °F 47.2 °F 29.98 in East 1.0 mph 5.0 mph 50 % 0.00 in 0.00 W/m2
05:19 66.3 °F 46.6 °F 29.98 in Calm   4.0 mph 49 % 0.00 in 0.00 W/m2
05:24 66.3 °F 46.6 °F 29.98 in East 1.0 mph 5.0 mph 49 % 0.00 in 0.00 W/m2
05:29 66.2 °F 46.5 °F 29.98 in East 2.0 mph 7.0 mph 49 % 0.00 in 0.00 W/m2
05:34 66.1 °F 46.4 °F 29.98 in Calm   6.0 mph 49 % 0.00 in 0.00 W/m2
05:39 66.1 °F 46.4 °F 29.98 in Calm   7.0 mph 49 % 0.00 in 0.00 W/m2
05:44 66.0 °F 46.3 °F 29.98 in Calm   7.0 mph 49 % 0.00 in 0.00 W/m2
05:49 65.9 °F 46.8 °F 29.98 in Calm   7.0 mph 50 % 0.00 in 0.00 W/m2
05:55 65.9 °F 46.2 °F 29.98 in Calm   5.0 mph 49 % 0.00 in 0.00 W/m2
06:00 65.9 °F 46.8 °F 29.99 in Calm   7.0 mph 50 % 0.00 in 0.00 W/m2
06:05 65.9 °F 46.8 °F 29.98 in East 5.0 mph 5.0 mph 50 % 0.00 in 0.00 W/m2
06:10 65.9 °F 46.8 °F 29.99 in East 7.0 mph 8.0 mph 50 % 0.00 in 0.00 W/m2
06:15 65.9 °F 46.8 °F 29.99 in ESE 7.0 mph 8.0 mph 50 % 0.00 in 0.00 W/m2
06:20 65.9 °F 46.8 °F 29.99 in Calm   8.0 mph 50 % 0.00 in 0.00 W/m2
06:25 66.0 °F 46.8 °F 29.99 in East 4.0 mph 11.0 mph 50 % 0.00 in 0.00 W/m2
06:30 65.9 °F 46.8 °F 29.99 in ESE 4.0 mph 9.0 mph 50 % 0.00 in 0.00 W/m2
06:35 66.0 °F 46.8 °F 29.99 in East 7.0 mph 8.0 mph 50 % 0.00 in 0.00 W/m2
06:40 66.1 °F 46.9 °F 29.99 in East 9.0 mph 9.0 mph 50 % 0.00 in 5.00 W/m2
06:45 66.1 °F 46.9 °F 29.99 in East 5.0 mph 12.0 mph 50 % 0.00 in 9.00 W/m2
06:50 66.1 °F 46.9 °F 29.99 in East 4.0 mph 11.0 mph 50 % 0.00 in 11.00 W/m2
06:55 66.2 °F 47.0 °F 29.99 in ESE 7.0 mph 11.0 mph 50 % 0.00 in 14.00 W/m2
07:00 66.2 °F 47.0 °F 29.99 in East 8.0 mph 12.0 mph 50 % 0.00 in 18.00 W/m2
07:05 66.3 °F 47.1 °F 29.99 in East 5.0 mph 12.0 mph 50 % 0.00 in 21.00 W/m2
07:10 66.3 °F 47.7 °F 30.00 in East 4.0 mph 12.0 mph 51 % 0.00 in 30.00 W/m2
07:15 66.4 °F 47.2 °F 29.99 in East 1.0 mph 11.0 mph 50 % 0.00 in 39.00 W/m2
07:20 66.5 °F 47.3 °F 29.99 in East 7.0 mph 14.0 mph 50 % 0.00 in 49.00 W/m2
07:25 66.6 °F 47.9 °F 30.00 in Calm   14.0 mph 51 % 0.00 in 65.00 W/m2
07:30 66.7 °F 48.0 °F 30.00 in Calm   11.0 mph 51 % 0.00 in 81.00 W/m2
07:35 66.8 °F 48.1 °F 30.00 in East 9.0 mph 11.0 mph 51 % 0.00 in 97.00 W/m2
07:40 66.8 °F 48.6 °F 29.99 in ESE 4.0 mph 14.0 mph 52 % 0.00 in 113.00 W/m2
07:45 66.8 °F 48.6 °F 30.00 in ESE 7.0 mph 14.0 mph 52 % 0.00 in 123.00 W/m2
07:50 66.8 °F 48.6 °F 30.00 in ESE 8.0 mph 15.0 mph 52 % 0.00 in 144.00 W/m2
07:55 66.8 °F 48.6 °F 30.00 in ESE 4.0 mph 12.0 mph 52 % 0.00 in 165.00 W/m2
08:00 66.9 °F 48.7 °F 30.00 in ESE 1.0 mph 12.0 mph 52 % 0.00 in 188.00 W/m2
08:05 67.0 °F 48.3 °F 30.00 in ESE 11.0 mph 14.0 mph 51 % 0.00 in 207.00 W/m2
08:10 67.1 °F 48.9 °F 30.00 in ESE 2.0 mph 12.0 mph 52 % 0.00 in 227.00 W/m2
08:15 67.3 °F 49.1 °F 30.00 in Calm   12.0 mph 52 % 0.00 in 246.00 W/m2
08:20 67.4 °F 49.2 °F 30.00 in ESE 8.0 mph 9.0 mph 52 % 0.00 in 267.00 W/m2
08:25 67.5 °F 49.3 °F 30.00 in ESE 2.0 mph 12.0 mph 52 % 0.00 in 285.00 W/m2
08:30 67.7 °F 49.5 °F 30.00 in ESE 5.0 mph 8.0 mph 52 % 0.00 in 297.00 W/m2
08:35 67.8 °F 49.5 °F 30.00 in Calm   8.0 mph 52 % 0.00 in 316.00 W/m2
08:40 68.0 °F 49.7 °F 30.00 in Calm   5.0 mph 52 % 0.00 in 332.00 W/m2
08:45 68.2 °F 50.4 °F 30.00 in ESE 6.0 mph 7.0 mph 53 % 0.00 in 350.00 W/m2
08:50 68.4 °F 50.6 °F 30.00 in Calm   5.0 mph 53 % 0.00 in 369.00 W/m2
08:55 68.7 °F 51.4 °F 30.00 in ESE 4.0 mph 6.0 mph 54 % 0.00 in 387.00 W/m2
09:00 69.0 °F 51.7 °F 30.01 in Calm   7.0 mph 54 % 0.00 in 415.00 W/m2
09:05 69.3 °F 52.0 °F 30.01 in Calm   5.0 mph 54 % 0.00 in 445.00 W/m2
09:06 69.4 °F 52.0 °F 30.01 in Calm     54 % 0.00 in 445.00 W/m2
09:11 69.6 °F 52.2 °F 30.01 in Calm     54 % 0.00 in 443.00 W/m2
09:16 69.9 °F 52.5 °F 30.01 in ESE 4.0 mph 4.0 mph 54 % 0.00 in 334.00 W/m2
09:21 70.2 °F 52.8 °F 30.01 in Calm     54 % 0.00 in 462.00 W/m2
09:26 70.4 °F 53.0 °F 30.01 in Calm     54 % 0.00 in 471.00 W/m2
09:31 70.8 °F 53.3 °F 30.01 in Calm     54 % 0.00 in 490.00 W/m2
09:36 71.0 °F 52.0 °F 30.01 in Calm     51 % 0.00 in 468.00 W/m2
09:37 71.0 °F 52.0 °F 30.01 in Calm     51 % 0.00 in 468.00 W/m2
09:42 71.4 °F 51.8 °F 30.01 in Calm   2.0 mph 50 % 0.00 in 519.00 W/m2
09:47 71.9 °F 52.3 °F 30.01 in Calm   4.0 mph 50 % 0.00 in 531.00 W/m2
09:52 72.5 °F 52.3 °F 30.01 in Calm     49 % 0.00 in 552.00 W/m2
09:57 73.2 °F 52.9 °F 30.01 in Calm     49 % 0.00 in 568.00 W/m2
10:02 73.7 °F 52.8 °F 30.01 in Calm     48 % 0.00 in 589.00 W/m2
10:07 74.1 °F 53.7 °F 30.01 in Calm     49 % 0.00 in 594.00 W/m2
10:12 74.4 °F 53.5 °F 30.01 in Calm     48 % 0.00 in 598.00 W/m2
10:17 74.7 °F 52.6 °F 30.01 in Calm     46 % 0.00 in 605.00 W/m2
10:22 74.9 °F 52.8 °F 30.01 in Calm     46 % 0.00 in 615.00 W/m2
10:27 75.1 °F 52.3 °F 30.01 in Calm   4.0 mph 45 % 0.00 in 628.00 W/m2
10:32 75.3 °F 52.5 °F 30.01 in Calm   4.0 mph 45 % 0.00 in 640.00 W/m2
10:37 75.6 °F 52.8 °F 30.00 in Calm     45 % 0.00 in 649.00 W/m2
10:42 75.8 °F 53.0 °F 30.00 in Calm     45 % 0.00 in 659.00 W/m2
10:47 76.1 °F 53.2 °F 30.00 in East 2.0 mph 2.0 mph 45 % 0.00 in 670.00 W/m2
10:52 76.4 °F 53.5 °F 30.00 in Calm   3.0 mph 45 % 0.00 in 679.00 W/m2
10:57 76.6 °F 53.1 °F 30.00 in Calm     44 % 0.00 in 687.00 W/m2
11:02 76.9 °F 53.3 °F 30.00 in Calm   3.0 mph 44 % 0.00 in 696.00 W/m2
11:07 77.2 °F 53.6 °F 30.00 in Calm   3.0 mph 44 % 0.00 in 707.00 W/m2
11:12 77.5 °F 53.9 °F 30.00 in Calm   1.0 mph 44 % 0.00 in 715.00 W/m2
11:17 77.8 °F 54.2 °F 30.00 in Calm   1.0 mph 44 % 0.00 in 722.00 W/m2
11:22 78.2 °F 53.2 °F 30.00 in North 2.0 mph 4.0 mph 42 % 0.00 in 729.00 W/m2
11:27 78.4 °F 54.1 °F 29.99 in Calm   1.0 mph 43 % 0.00 in 737.00 W/m2
11:32 78.9 °F 53.2 °F 29.99 in Calm     41 % 0.00 in 744.00 W/m2
11:37 79.2 °F 53.5 °F 29.99 in NNW 3.0 mph 5.0 mph 41 % 0.00 in 751.00 W/m2
11:42 79.6 °F 53.2 °F 29.99 in Calm   3.0 mph 40 % 0.00 in 756.00 W/m2
11:47 80.0 °F 53.5 °F 29.99 in Calm     40 % 0.00 in 761.00 W/m2
11:52 80.3 °F 53.1 °F 29.99 in Calm   3.0 mph 39 % 0.00 in 768.00 W/m2
11:57 80.7 °F 54.2 °F 29.99 in NW 2.0 mph 4.0 mph 40 % 0.00 in 773.00 W/m2
12:02 81.0 °F 54.4 °F 29.99 in Calm   1.0 mph 40 % 0.00 in 775.00 W/m2
12:07 81.3 °F 53.3 °F 29.99 in NW 5.0 mph 5.0 mph 38 % 0.00 in 782.00 W/m2
12:12 81.6 °F 53.6 °F 29.98 in NW 1.0 mph 2.0 mph 38 % 0.00 in 782.00 W/m2
12:17 82.1 °F 53.3 °F 29.98 in Calm   4.0 mph 37 % 0.00 in 788.00 W/m2
12:22 82.5 °F 53.6 °F 29.98 in Calm   6.0 mph 37 % 0.00 in 789.00 W/m2
12:27 82.9 °F 53.2 °F 29.98 in NW 1.0 mph 4.0 mph 36 % 0.00 in 796.00 W/m2
12:29 83.0 °F 53.3 °F 29.98 in Calm   4.0 mph 36 % 0.00 in 795.00 W/m2
12:34 83.4 °F 52.9 °F 29.98 in Calm   5.0 mph 35 % 0.00 in 798.00 W/m2
12:39 83.8 °F 53.3 °F 29.98 in Calm   1.0 mph 35 % 0.00 in 798.00 W/m2
12:44 83.9 °F 52.6 °F 29.98 in Calm   4.0 mph 34 % 0.00 in 798.00 W/m2
12:49 84.2 °F 52.8 °F 29.97 in NW 1.0 mph 4.0 mph 34 % 0.00 in 802.00 W/m2
12:52 84.5 °F 53.1 °F 29.97 in NW 1.0 mph 4.0 mph 34 % 0.00 in 802.00 W/m2
12:57 85.0 °F 53.5 °F 29.97 in Calm   1.0 mph 34 % 0.00 in 798.00 W/m2
13:02 85.3 °F 53.8 °F 29.97 in Calm     34 % 0.00 in 800.00 W/m2
13:07 85.5 °F 53.1 °F 29.97 in Calm   1.0 mph 33 % 0.00 in 800.00 W/m2
13:12 85.6 °F 53.2 °F 29.97 in Calm   2.0 mph 33 % 0.00 in 800.00 W/m2
13:17 85.9 °F 53.5 °F 29.96 in Calm     33 % 0.00 in 798.00 W/m2
13:22 85.9 °F 54.3 °F 29.96 in WNW 2.0 mph 3.0 mph 34 % 0.00 in 796.00 W/m2
13:27 85.9 °F 54.3 °F 29.96 in West 1.0 mph 3.0 mph 34 % 0.00 in 789.00 W/m2
13:32 85.8 °F 55.0 °F 29.96 in WNW 2.0 mph 7.0 mph 35 % 0.00 in 788.00 W/m2
13:37 85.8 °F 54.2 °F 29.96 in WNW 5.0 mph 5.0 mph 34 % 0.00 in 786.00 W/m2
13:42 85.8 °F 55.0 °F 29.96 in NW 2.0 mph 4.0 mph 35 % 0.00 in 779.00 W/m2
13:47 86.0 °F 56.0 °F 29.95 in West 6.0 mph 6.0 mph 36 % 0.00 in 777.00 W/m2
13:52 86.4 °F 55.5 °F 29.95 in West 4.0 mph 11.0 mph 35 % 0.00 in 773.00 W/m2
13:57 86.8 °F 55.1 °F 29.95 in WNW 4.0 mph 5.0 mph 34 % 0.00 in 768.00 W/m2
14:02 87.1 °F 55.4 °F 29.95 in Calm   4.0 mph 34 % 0.00 in 765.00 W/m2
14:07 87.2 °F 55.4 °F 29.95 in Calm   6.0 mph 34 % 0.00 in 756.00 W/m2
14:12 87.0 °F 55.3 °F 29.95 in WNW 4.0 mph 4.0 mph 34 % 0.00 in 754.00 W/m2
14:17 86.8 °F 55.1 °F 29.94 in Calm   4.0 mph 34 % 0.00 in 747.00 W/m2
14:20 86.7 °F 55.0 °F 29.94 in Calm   4.0 mph 34 % 0.00 in 744.00 W/m2
14:25 86.6 °F 55.7 °F 29.94 in SW 1.0 mph 7.0 mph 35 % 0.00 in 737.00 W/m2
14:30 86.6 °F 55.7 °F 29.94 in WNW 4.0 mph 11.0 mph 35 % 0.00 in 731.00 W/m2
14:35 86.8 °F 55.9 °F 29.94 in WNW 4.0 mph 4.0 mph 35 % 0.00 in 715.00 W/m2
14:40 86.8 °F 55.1 °F 29.94 in WNW 6.0 mph 8.0 mph 34 % 0.00 in 712.00 W/m2
14:45 86.8 °F 55.1 °F 29.94 in Calm   3.0 mph 34 % 0.00 in 700.00 W/m2
14:50 86.8 °F 56.7 °F 29.94 in West 6.0 mph 8.0 mph 36 % 0.00 in 693.00 W/m2
14:55 86.9 °F 56.0 °F 29.94 in Calm   6.0 mph 35 % 0.00 in 684.00 W/m2
15:00 87.1 °F 56.2 °F 29.93 in Calm   6.0 mph 35 % 0.00 in 677.00 W/m2
15:05 87.2 °F 55.4 °F 29.93 in WNW 4.0 mph 8.0 mph 34 % 0.00 in 671.00 W/m2
15:10 87.2 °F 55.4 °F 29.93 in West 1.0 mph 7.0 mph 34 % 0.00 in 657.00 W/m2
15:15 87.3 °F 56.3 °F 29.93 in West 1.0 mph 4.0 mph 35 % 0.00 in 647.00 W/m2
15:20 87.3 °F 56.3 °F 29.93 in WNW 3.0 mph 7.0 mph 35 % 0.00 in 633.00 W/m2
15:25 87.4 °F 55.6 °F 29.93 in Calm   8.0 mph 34 % 0.00 in 626.00 W/m2
15:30 87.2 °F 56.2 °F 29.93 in West 4.0 mph 10.0 mph 35 % 0.00 in 612.00 W/m2
15:35 87.2 °F 56.2 °F 29.93 in Calm   7.0 mph 35 % 0.00 in 603.00 W/m2
15:38 87.2 °F 57.0 °F 29.93 in WNW 5.0 mph 9.0 mph 36 % 0.00 in 594.00 W/m2
15:43 87.0 °F 56.1 °F 29.92 in WNW 2.0 mph 6.0 mph 35 % 0.00 in 584.00 W/m2
15:48 86.9 °F 56.0 °F 29.92 in NW 2.0 mph 8.0 mph 35 % 0.00 in 570.00 W/m2
15:53 86.7 °F 55.8 °F 29.92 in WNW 3.0 mph 8.0 mph 35 % 0.00 in 557.00 W/m2
15:58 86.5 °F 55.6 °F 29.92 in NW 5.0 mph 10.0 mph 35 % 0.00 in 545.00 W/m2
16:03 86.5 °F 55.6 °F 29.92 in Calm   7.0 mph 35 % 0.00 in 536.00 W/m2
16:08 86.5 °F 55.6 °F 29.92 in WNW 3.0 mph 7.0 mph 35 % 0.00 in 522.00 W/m2
16:13 86.5 °F 55.6 °F 29.92 in Calm   7.0 mph 35 % 0.00 in 506.00 W/m2
16:18 86.6 °F 55.7 °F 29.92 in WNW 4.0 mph 8.0 mph 35 % 0.00 in 490.00 W/m2
16:24 86.7 °F 55.8 °F 29.92 in Calm   4.0 mph 35 % 0.00 in 482.00 W/m2
16:29 86.6 °F 55.7 °F 29.92 in Calm   7.0 mph 35 % 0.00 in 468.00 W/m2
16:31 86.6 °F 56.5 °F 29.92 in Calm   7.0 mph 36 % 0.00 in 454.00 W/m2
16:36 86.7 °F 55.8 °F 29.92 in WNW 2.0 mph 7.0 mph 35 % 0.00 in 434.00 W/m2
16:41 86.7 °F 56.6 °F 29.91 in WNW 7.0 mph 7.0 mph 36 % 0.00 in 424.00 W/m2
16:46 86.7 °F 56.6 °F 29.91 in WNW 1.0 mph 2.0 mph 36 % 0.00 in 410.00 W/m2
16:52 86.6 °F 56.5 °F 29.91 in WNW 7.0 mph 9.0 mph 36 % 0.00 in 394.00 W/m2
16:57 86.6 °F 56.5 °F 29.91 in Calm   6.0 mph 36 % 0.00 in 383.00 W/m2
17:02 86.6 °F 57.2 °F 29.91 in Calm   3.0 mph 37 % 0.00 in 366.00 W/m2
17:07 86.3 °F 56.2 °F 29.91 in WNW 3.0 mph 6.0 mph 36 % 0.00 in 348.00 W/m2
17:12 86.1 °F 56.8 °F 29.91 in NW 2.0 mph 7.0 mph 37 % 0.00 in 329.00 W/m2
17:15 86.0 °F 56.0 °F 29.91 in WNW 1.0 mph 7.0 mph 36 % 0.00 in 320.00 W/m2
17:20 85.9 °F 56.6 °F 29.91 in WSW 6.0 mph 8.0 mph 37 % 0.00 in 304.00 W/m2
17:25 85.7 °F 56.5 °F 29.90 in West 2.0 mph 7.0 mph 37 % 0.00 in 288.00 W/m2
17:30 85.6 °F 57.1 °F 29.90 in Calm   8.0 mph 38 % 0.00 in 269.00 W/m2
17:35 85.3 °F 56.8 °F 29.90 in WNW 2.0 mph 6.0 mph 38 % 0.00 in 258.00 W/m2
17:40 85.1 °F 56.7 °F 29.90 in West 1.0 mph 6.0 mph 38 % 0.00 in 243.00 W/m2
17:45 84.9 °F 56.5 °F 29.90 in Calm   8.0 mph 38 % 0.00 in 227.00 W/m2
17:50 84.7 °F 56.3 °F 29.90 in West 3.0 mph 7.0 mph 38 % 0.00 in 211.00 W/m2
17:56 84.5 °F 56.8 °F 29.90 in West 3.0 mph 6.0 mph 39 % 0.00 in 197.00 W/m2
18:00 84.3 °F 56.0 °F 29.90 in Calm   5.0 mph 38 % 0.00 in 181.00 W/m2
18:01 84.2 °F 56.6 °F 29.90 in Calm   2.0 mph 39 % 0.00 in 181.00 W/m2
18:06 84.0 °F 56.4 °F 29.90 in Calm   1.0 mph 39 % 0.00 in 163.00 W/m2
18:11 83.9 °F 57.0 °F 29.90 in Calm   4.0 mph 40 % 0.00 in 142.00 W/m2
18:16 83.7 °F 56.8 °F 29.90 in Calm   2.0 mph 40 % 0.00 in 125.00 W/m2
18:21 83.6 °F 56.8 °F 29.90 in Calm     40 % 0.00 in 107.00 W/m2
18:26 83.3 °F 56.5 °F 29.90 in Calm     40 % 0.00 in 90.00 W/m2
18:31 83.1 °F 57.0 °F 29.90 in Calm     41 % 0.00 in 76.00 W/m2
18:36 82.9 °F 57.5 °F 29.90 in Calm   1.0 mph 42 % 0.00 in 60.00 W/m2
18:41 82.7 °F 57.3 °F 29.90 in Calm   2.0 mph 42 % 0.00 in 47.00 W/m2
18:46 82.4 °F 57.7 °F 29.90 in Calm   1.0 mph 43 % 0.00 in 39.00 W/m2
18:51 82.1 °F 57.4 °F 29.90 in Calm     43 % 0.00 in 30.00 W/m2
18:56 81.8 °F 57.1 °F 29.90 in Calm     43 % 0.00 in 23.00 W/m2
19:01 81.6 °F 57.0 °F 29.90 in Calm     43 % 0.00 in 18.00 W/m2
19:06 81.2 °F 57.2 °F 29.90 in Calm     44 % 0.00 in 14.00 W/m2
19:11 80.9 °F 57.6 °F 29.90 in Calm     45 % 0.00 in 11.00 W/m2
19:16 80.6 °F 57.3 °F 29.90 in Calm     45 % 0.00 in 7.00 W/m2
19:21 80.3 °F 57.0 °F 29.91 in Calm     45 % 0.00 in 5.00 W/m2
19:26 79.8 °F 56.6 °F 29.91 in Calm     45 % 0.00 in 0.00 W/m2
19:31 79.1 °F 56.6 °F 29.91 in Calm     46 % 0.00 in 0.00 W/m2
19:36 78.6 °F 56.7 °F 29.91 in Calm     47 % 0.00 in 0.00 W/m2
19:41 78.3 °F 56.4 °F 29.91 in Calm     47 % 0.00 in 0.00 W/m2
19:47 78.0 °F 56.2 °F 29.91 in Calm     47 % 0.00 in 0.00 W/m2
19:52 77.7 °F 56.5 °F 29.91 in Calm     48 % 0.00 in 0.00 W/m2
19:57 77.3 °F 56.1 °F 29.91 in Calm     48 % 0.00 in 0.00 W/m2
20:02 76.7 °F 55.5 °F 29.91 in Calm     48 % 0.00 in 0.00 W/m2
20:07 76.2 °F 55.7 °F 29.91 in Calm     49 % 0.00 in 0.00 W/m2
20:22 75.1 °F 55.2 °F 29.91 in Calm     50 % 0.00 in 0.00 W/m2
20:25 75.0 °F 55.1 °F 29.91 in Calm     50 % 0.00 in 0.00 W/m2
20:28 75.0 °F 55.1 °F 29.91 in Calm     50 % 0.00 in 0.00 W/m2
20:29 75.0 °F 55.1 °F 29.91 in Calm     50 % 0.00 in 0.00 W/m2
20:31 74.9 °F 55.0 °F 29.91 in Calm     50 % 0.00 in 0.00 W/m2
20:36 74.9 °F 54.5 °F 29.91 in Calm     49 % 0.00 in 0.00 W/m2
20:38 74.9 °F 54.5 °F 29.91 in Calm     49 % 0.00 in 0.00 W/m2
20:43 74.7 °F 54.8 °F 29.91 in Calm     50 % 0.00 in 0.00 W/m2
20:48 74.5 °F 54.7 °F 29.91 in Calm     50 % 0.00 in 0.00 W/m2
20:53 74.4 °F 54.6 °F 29.91 in Calm     50 % 0.00 in 0.00 W/m2
20:58 74.3 °F 54.5 °F 29.91 in Calm     50 % 0.00 in 0.00 W/m2
20:59 74.3 °F 54.5 °F 29.91 in Calm     50 % 0.00 in 0.00 W/m2
21:04 74.3 °F 54.5 °F 29.91 in Calm     50 % 0.00 in 0.00 W/m2
21:09 74.3 °F 55.0 °F 29.91 in Calm     51 % 0.00 in 0.00 W/m2
21:14 74.3 °F 55.0 °F 29.91 in NW 4.0 mph 4.0 mph 51 % 0.00 in 0.00 W/m2
21:19 74.3 °F 55.0 °F 29.92 in Calm   5.0 mph 51 % 0.00 in 0.00 W/m2
21:24 74.3 °F 55.0 °F 29.92 in Calm   1.0 mph 51 % 0.00 in 0.00 W/m2
21:29 74.2 °F 54.9 °F 29.91 in NNE 1.0 mph 4.0 mph 51 % 0.00 in 0.00 W/m2
21:34 74.2 °F 54.4 °F 29.91 in Calm   3.0 mph 50 % 0.00 in 0.00 W/m2
21:39 74.2 °F 54.9 °F 29.91 in ENE 6.0 mph 7.0 mph 51 % 0.00 in 0.00 W/m2
21:44 74.2 °F 54.9 °F 29.91 in Calm   6.0 mph 51 % 0.00 in 0.00 W/m2
21:49 74.1 °F 54.8 °F 29.91 in East 3.0 mph 7.0 mph 51 % 0.00 in 0.00 W/m2
21:54 74.2 °F 54.9 °F 29.91 in Calm   8.0 mph 51 % 0.00 in 0.00 W/m2
21:59 74.2 °F 54.9 °F 29.91 in East 2.0 mph 7.0 mph 51 % 0.00 in 0.00 W/m2
22:04 74.2 °F 54.9 °F 29.91 in East 1.0 mph 8.0 mph 51 % 0.00 in 0.00 W/m2
22:09 74.2 °F 54.9 °F 29.91 in Calm   6.0 mph 51 % 0.00 in 0.00 W/m2
22:14 74.1 °F 54.8 °F 29.90 in East 4.0 mph 6.0 mph 51 % 0.00 in 0.00 W/m2
22:19 74.2 °F 55.5 °F 29.90 in ESE 5.0 mph 9.0 mph 52 % 0.00 in 0.00 W/m2
22:24 74.1 °F 55.4 °F 29.90 in Calm   8.0 mph 52 % 0.00 in 0.00 W/m2
22:29 74.1 °F 55.4 °F 29.90 in East 7.0 mph 8.0 mph 52 % 0.00 in 0.00 W/m2
22:34 74.1 °F 55.4 °F 29.90 in East 2.0 mph 6.0 mph 52 % 0.00 in 0.00 W/m2
22:35 74.1 °F 55.4 °F 29.90 in East 5.0 mph 6.0 mph 52 % 0.00 in 0.00 W/m2
22:40 74.1 °F 55.4 °F 29.90 in ESE 5.0 mph 7.0 mph 52 % 0.00 in 0.00 W/m2
22:45 74.1 °F 55.4 °F 29.90 in Calm   7.0 mph 52 % 0.00 in 0.00 W/m2
22:50 74.0 °F 55.3 °F 29.90 in ESE 5.0 mph 9.0 mph 52 % 0.00 in 0.00 W/m2
22:55 74.0 °F 55.3 °F 29.90 in ESE 8.0 mph 11.0 mph 52 % 0.00 in 0.00 W/m2
23:00 73.9 °F 55.2 °F 29.90 in ESE 4.0 mph 12.0 mph 52 % 0.00 in 0.00 W/m2
23:05 73.9 °F 55.2 °F 29.90 in East 2.0 mph 9.0 mph 52 % 0.00 in 0.00 W/m2
23:10 73.8 °F 55.1 °F 29.90 in East 2.0 mph 11.0 mph 52 % 0.00 in 0.00 W/m2
23:15 73.8 °F 55.1 °F 29.90 in ESE 5.0 mph 9.0 mph 52 % 0.00 in 0.00 W/m2
23:20 73.7 °F 55.0 °F 29.90 in East 2.0 mph 11.0 mph 52 % 0.00 in 0.00 W/m2
23:25 73.7 °F 55.0 °F 29.90 in Calm   9.0 mph 52 % 0.00 in 0.00 W/m2
23:30 73.6 °F 54.9 °F 29.90 in East 4.0 mph 8.0 mph 52 % 0.00 in 0.00 W/m2
23:35 73.6 °F 54.9 °F 29.90 in Calm   6.0 mph 52 % 0.00 in 0.00 W/m2
23:41 73.6 °F 54.9 °F 29.90 in Calm   9.0 mph 52 % 0.00 in 0.00 W/m2
23:46 73.6 °F 54.9 °F 29.90 in Calm     52 % 0.00 in 0.00 W/m2
23:51 73.6 °F 54.9 °F 29.90 in ESE 2.0 mph 7.0 mph 52 % 0.00 in 0.00 W/m2
23:56 73.5 °F 54.8 °F 29.89 in Calm   5.0 mph 52 % 0.00 in 0.00 W/m2
Juneau County Weather
Compliments of Weather Underground - 4.5 mb
 WU-history PHP script courtesy of   Juneau County Weather.
powered by Cumulus v1.9.3 (1059)
Ambient Weather VWS v14.00
Top Contact Website Map Copyright © 2007 - 2018 Foresthillweather.com Never base important decisions on this or any weather information obtained from the Internet